This is the latest recevied weather packets stored in our database for station/object W7BTL. If no packets are shown the sender has not sent any weather packets the latest 10 day(s).
| Time | Temp. | Humidity | Pressure | Rain* | Wind** | Luminosity | Snow |
|---|---|---|---|---|---|---|---|
| 1778092211 | 30.56° C | 31% | 1018.3 hPa | 0 mm | - | 987 W/m² | - |
| 1778091908 | 31.11° C | 31% | 1018.3 hPa | 0 mm | - | 991 W/m² | - |
| 1778091605 | 30° C | 32% | 1018.2 hPa | 0 mm | - | 970 W/m² | - |
| 1778091303 | 28.89° C | 34% | 1018.4 hPa | 0 mm | - | 1000 W/m² | - |
| 1778091000 | 28.33° C | 35% | 1018.4 hPa | 0 mm | - | 980 W/m² | - |
| 1778090696 | 27.22° C | 36% | 1018.3 hPa | 0 mm | - | 964 W/m² | - |
| 1778090393 | 28.89° C | 34% | 1018.2 hPa | 0 mm | - | 973 W/m² | - |
| 1778090090 | 28.89° C | 34% | 1018.3 hPa | 0 mm | - | 979 W/m² | - |
| 1778089786 | 29.44° C | 32% | 1018.3 hPa | 0 mm | - | 922 W/m² | - |
| 1778089484 | 29.44° C | 33% | 1018.2 hPa | 0 mm | - | 914 W/m² | - |
| 1778089180 | 28.89° C | 33% | 1018.6 hPa | 0 mm | - | 906 W/m² | - |
| 1778088878 | 26.67° C | 38% | 1018.6 hPa | 0 mm | - | 906 W/m² | - |
| 1778088575 | 27.22° C | 38% | 1018.4 hPa | 0 mm | - | 881 W/m² | - |
| 1778088272 | 27.22° C | 37% | 1018.5 hPa | 0 mm | - | 886 W/m² | - |
| 1778087968 | 26.11° C | 39% | 1018.4 hPa | 0 mm | - | 865 W/m² | - |
| 1778087666 | 26.11° C | 41% | 1018.3 hPa | 0 mm | - | 841 W/m² | - |
| 1778087364 | 26.67° C | 40% | 1018.3 hPa | 0 mm | - | 821 W/m² | - |
| 1778087060 | 26.67° C | 39% | 1018.4 hPa | 0 mm | - | 829 W/m² | - |
| 1778086759 | 27.22° C | 38% | 1018.4 hPa | 0 mm | - | 866 W/m² | - |
| 1778086457 | 27.22° C | 38% | 1018.4 hPa | 0 mm | - | 825 W/m² | - |
| 1778086153 | 27.22° C | 39% | 1018.4 hPa | 0 mm | - | 775 W/m² | - |
| 1778085849 | 26.67° C | 40% | 1018.3 hPa | 0 mm | - | 755 W/m² | - |
| 1778085548 | 26.67° C | 39% | 1018.4 hPa | 0 mm | - | 733 W/m² | - |
| 1778085241 | 24.44° C | 45% | 1018.3 hPa | 0 mm | - | 715 W/m² | - |
| 1778084936 | 23.89° C | 46% | 1018.4 hPa | 0 mm | - | 702 W/m² | - |
* Rain latest hour (hover to see other rain measurements)
** Current wind speed in m/s (hover to see current wind gust speed)